This is the latest recevied weather packets stored in our database for station/object N5KJT. If no packets are shown the sender has not sent any weather packets the latest 10 day(s).
| Time | Temp. | Humidity | Pressure | Rain* | Wind** | Luminosity | Snow |
|---|---|---|---|---|---|---|---|
| 1787646616 | 20.56° C | 50% | 1026.7 hPa | 0 mm | - | 0 W/m² | - |
| 1787646316 | 20.56° C | 50% | 1026.5 hPa | 0 mm | - | 0 W/m² | - |
| 1787646016 | 20° C | 50% | 1026.5 hPa | 0 mm | - | 0 W/m² | - |
| 1787645716 | 19.44° C | 51% | 1026.5 hPa | 0 mm | - | 0 W/m² | - |
| 1787645415 | 19.44° C | 51% | 1026.2 hPa | 0 mm | - | 0 W/m² | - |
| 1787645116 | 19.44° C | 51% | 1026.2 hPa | 0 mm | - | 0 W/m² | - |
| 1787644816 | 19.44° C | 50% | 1026.2 hPa | 0 mm | - | 0 W/m² | - |
| 1787644516 | 20° C | 50% | 1026.2 hPa | 0 mm | - | 0 W/m² | - |
| 1787644216 | 20° C | 50% | 1026.2 hPa | 0 mm | - | 0 W/m² | - |
| 1787643916 | 20° C | 49% | 1026.1 hPa | 0 mm | - | 0 W/m² | - |
| 1787643616 | 20.56° C | 48% | 1026.1 hPa | 0 mm | - | 0 W/m² | - |
| 1787643315 | 20.56° C | 48% | 1026 hPa | 0 mm | - | 0 W/m² | - |
| 1787643016 | 20° C | 47% | 1026 hPa | 0 mm | - | 0 W/m² | - |
| 1787642715 | 20° C | 47% | 1026.1 hPa | 0 mm | - | 0 W/m² | - |
| 1787642416 | 20° C | 48% | 1026.1 hPa | 0 mm | - | 0 W/m² | - |
| 1787642116 | 20° C | 49% | 1026.2 hPa | 0 mm | - | 0 W/m² | - |
| 1787641816 | 20° C | 50% | 1026.2 hPa | 0 mm | - | 0 W/m² | - |
| 1787641515 | 19.44° C | 50% | 1026.1 hPa | 0 mm | - | 0 W/m² | - |
| 1787641216 | 18.89° C | 52% | 1026.2 hPa | 0 mm | - | 0 W/m² | - |
| 1787640915 | 18.89° C | 54% | 1026 hPa | 0 mm | - | 0 W/m² | - |
| 1787640615 | 18.33° C | 54% | 1025.9 hPa | 0 mm | - | 0 W/m² | - |
| 1787640316 | 18.33° C | 57% | 1025.9 hPa | 0 mm | - | 0 W/m² | - |
| 1787640015 | 17.78° C | 62% | 1025.9 hPa | 0 mm | - | 0 W/m² | - |
| 1787639716 | 18.33° C | 62% | 1026 hPa | 0 mm | - | 0 W/m² | - |
| 1787639416 | 18.33° C | 61% | 1026 hPa | 0 mm | - | 0 W/m² | - |
* Rain latest hour (hover to see other rain measurements)
** Current wind speed in m/s (hover to see current wind gust speed)